| time (UTC) | temp F | wind direction | speed MPH | gust MPH | rain 1hr in | rain 24hr in | rain mn in | humidity % | barometer mb |
| 20260506044005 | 42 | 310 | 0.0 | 2.0 | 0.00 | 0.00 | 0.00 | 51 | 1012.5 |
| 20260506043505 | 42 | 330 | 0.0 | 3.0 | 0.00 | 0.00 | 0.00 | 51 | 1012.5 |
| 20260506043006 | 42 | 327 | 0.0 | 3.0 | 0.00 | 0.00 | 0.00 | 50 | 1012.5 |
| 20260506042505 | 42 | 344 | 0.0 | 5.0 | 0.00 | 0.00 | 0.00 | 50 | 1012.5 |
| 20260506042011 | 42 | 315 | 1.0 | 5.0 | 0.00 | 0.00 | 0.00 | 50 | 1012.4 |
| 20260506041504 | 42 | 342 | 1.0 | 5.0 | 0.00 | 0.00 | 0.00 | 50 | 1012.4 |
| 20260506041006 | 42 | 5 | 0.0 | 5.0 | 0.00 | 0.00 | 0.00 | 49 | 1012.3 |
| 20260506040503 | 42 | 291 | 0.0 | 5.0 | 0.00 | 0.00 | 0.00 | 49 | 1012.3 |
| 20260506040010 | 43 | 327 | 1.0 | 9.0 | 0.00 | 0.00 | 0.00 | 49 | 1012.2 |
| 20260506035502 | 43 | 77 | 0.0 | 9.0 | 0.00 | 0.00 | 0.00 | 49 | 1012.3 |
| 20260506035006 | 43 | 284 | 1.0 | 9.0 | 0.00 | 0.00 | 0.00 | 49 | 1012.3 |
| 20260506034508 | 43 | 138 | 0.0 | 4.0 | 0.00 | 0.00 | 0.00 | 48 | 1012.2 |
| 20260506034004 | 43 | 315 | 0.0 | 6.0 | 0.00 | 0.00 | 0.00 | 48 | 1012.2 |
| 20260506033503 | 43 | 269 | 1.0 | 6.0 | 0.00 | 0.00 | 0.00 | 48 | 1012.1 |
| 20260506033013 | 44 | 251 | 0.0 | 2.0 | 0.00 | 0.00 | 0.00 | 48 | 1012.0 |
| 20260506032504 | 44 | 318 | 0.0 | 2.0 | 0.00 | 0.00 | 0.00 | 47 | 1012.0 |
| 20260506032003 | 44 | 351 | 0.0 | 4.0 | 0.00 | 0.00 | 0.00 | 47 | 1012.0 |
| 20260506031524 | 44 | 286 | 0.0 | 4.0 | 0.00 | 0.00 | 0.00 | 47 | 1012.0 |
| 20260506031008 | 44 | 320 | 1.0 | 3.0 | 0.00 | 0.00 | 0.00 | 47 | 1012.0 |
| 20260506030506 | 45 | 306 | 0.0 | 2.0 | 0.00 | 0.00 | 0.00 | 46 | 1012.0 |
| 20260506030006 | 45 | 348 | 0.0 | 2.0 | 0.00 | 0.00 | 0.00 | 46 | 1011.9 |
| 20260506025504 | 45 | 320 | 0.0 | 3.0 | 0.00 | 0.00 | 0.00 | 46 | 1012.0 |
| 20260506025004 | 45 | 324 | 0.0 | 4.0 | 0.00 | 0.00 | 0.00 | 45 | 1011.9 |
| 20260506024513 | 45 | 322 | 0.0 | 4.0 | 0.00 | 0.00 | 0.00 | 45 | 1011.9 |
| 20260506024004 | 45 | 315 | 0.0 | 3.0 | 0.00 | 0.00 | 0.00 | 45 | 1011.9 |
| 20260506023504 | 46 | 338 | 0.0 | 4.0 | 0.00 | 0.00 | 0.00 | 44 | 1011.8 |
| 20260506023012 | 46 | 310 | 0.0 | 4.0 | 0.00 | 0.00 | 0.00 | 44 | 1011.8 |
| 20260506022506 | 46 | 326 | 0.0 | 3.0 | 0.00 | 0.00 | 0.00 | 44 | 1011.6 |
| 20260506022004 | 46 | 331 | 0.0 | 3.0 | 0.00 | 0.00 | 0.00 | 43 | 1011.5 |
| 20260506021516 | 46 | 339 | 0.0 | 5.0 | 0.00 | 0.00 | 0.00 | 44 | 1011.5 |
| 20260506021005 | 46 | 325 | 0.0 | 5.0 | 0.00 | 0.00 | 0.00 | 43 | 1011.5 |
| 20260506020511 | 46 | 301 | 1.0 | 6.0 | 0.00 | 0.00 | 0.00 | 43 | 1011.4 |
| 20260506020017 | 46 | 336 | 1.0 | 6.0 | 0.00 | 0.00 | 0.00 | 43 | 1011.4 |
| 20260506015506 | 47 | 28 | 0.0 | 4.0 | 0.00 | 0.00 | 0.00 | 43 | 1011.3 |
| 20260506015003 | 47 | 321 | 0.0 | 9.0 | 0.00 | 0.00 | 0.00 | 42 | 1011.2 |
| 20260506014514 | 47 | 308 | 3.0 | 9.0 | 0.00 | 0.00 | 0.00 | 42 | 1011.1 |
| 20260506014003 | 47 | 352 | 1.0 | 8.0 | 0.00 | 0.00 | 0.00 | 42 | 1011.0 |
| 20260506013507 | 47 | 304 | 1.0 | 8.0 | 0.00 | 0.00 | 0.00 | 42 | 1010.9 |
| 20260506013007 | 47 | 313 | 2.0 | 8.0 | 0.00 | 0.00 | 0.00 | 41 | 1010.8 |
| 20260506012503 | 47 | 334 | 2.0 | 12.0 | 0.00 | 0.00 | 0.00 | 41 | 1010.9 |
| 20260506012004 | 47 | 317 | 1.0 | 12.0 | 0.00 | 0.00 | 0.00 | 41 | 1010.9 |
| 20260506011503 | 48 | 348 | 2.0 | 10.0 | 0.00 | 0.00 | 0.00 | 41 | 1010.8 |
| 20260506011005 | 48 | 332 | 2.0 | 10.0 | 0.00 | 0.00 | 0.00 | 41 | 1010.8 |
| 20260506010505 | 48 | 26 | 1.0 | 10.0 | 0.00 | 0.00 | 0.00 | 41 | 1010.8 |
| 20260506010014 | 48 | 14 | 1.0 | 8.0 | 0.00 | 0.00 | 0.00 | 41 | 1010.7 |
| 20260506005506 | 48 | 344 | 0.0 | 8.0 | 0.00 | 0.00 | 0.00 | 40 | 1010.6 |
| 20260506005009 | 48 | 346 | 2.0 | 11.0 | 0.00 | 0.00 | 0.00 | 40 | 1010.6 |
| 20260506004526 | 48 | 28 | 2.0 | 11.0 | 0.00 | 0.00 | 0.00 | 40 | 1010.4 |
| 20260506004013 | 48 | 352 | 2.0 | 7.0 | 0.00 | 0.00 | 0.00 | 40 | 1010.4 |
| 20260506003507 | 48 | 11 | 3.0 | 7.0 | 0.00 | 0.00 | 0.00 | 40 | 1010.3 |
| 20260506003018 | 49 | 296 | 1.0 | 4.0 | 0.00 | 0.00 | 0.00 | 40 | 1010.3 |
| 20260506002506 | 49 | 5 | 1.0 | 4.0 | 0.00 | 0.00 | 0.00 | 40 | 1010.3 |
| 20260506002005 | 49 | 35 | 1.0 | 6.0 | 0.00 | 0.00 | 0.00 | 39 | 1010.2 |
| 20260506001506 | 49 | 344 | 1.0 | 6.0 | 0.00 | 0.00 | 0.00 | 39 | 1010.3 |
| 20260506001004 | 49 | 350 | 1.0 | 5.0 | 0.00 | 0.00 | 0.00 | 39 | 1010.2 |
| 20260506000505 | 49 | 321 | 1.0 | 5.0 | 0.00 | 0.00 | 0.00 | 39 | 1010.1 |
| 20260506000008 | 49 | 40 | 1.0 | 7.0 | 0.00 | 0.00 | 0.00 | 39 | 1010.2 |
| 20260505235507 | 50 | 340 | 1.0 | 7.0 | 0.00 | 0.00 | 0.00 | 39 | 1010.2 |
| 20260505235004 | 50 | 288 | 2.0 | 8.0 | 0.00 | 0.00 | 0.00 | 40 | 1010.1 |
| 20260505234518 | 50 | 331 | 1.0 | 8.0 | 0.00 | 0.00 | 0.00 | 39 | 1010.1 |
| 20260505234006 | 50 | 242 | 2.0 | 5.0 | 0.00 | 0.00 | 0.00 | 38 | 1010.2 |
| 20260505233506 | 50 | 232 | 1.0 | 8.0 | 0.00 | 0.00 | 0.00 | 38 | 1010.1 |
| 20260505233023 | 50 | 215 | 1.0 | 8.0 | 0.00 | 0.00 | 0.00 | 39 | 1010.2 |
| 20260505232509 | 50 | 339 | 2.0 | 10.0 | 0.00 | 0.00 | 0.00 | 39 | 1010.1 |
| 20260505232006 | 50 | 191 | 1.0 | 10.0 | 0.00 | 0.00 | 0.00 | 38 | 1010.2 |
| 20260505231528 | 50 | 74 | 1.0 | 10.0 | 0.00 | 0.00 | 0.00 | 38 | 1010.0 |
| 20260505231014 | 50 | 312 | 2.0 | 10.0 | 0.00 | 0.00 | 0.00 | 38 | 1010.1 |
| 20260505230504 | 50 | 346 | 1.0 | 10.0 | 0.00 | 0.00 | 0.00 | 39 | 1010.1 |
| 20260505230021 | 51 | 227 | 2.0 | 10.0 | 0.00 | 0.00 | 0.00 | 39 | 1010.0 |
| 20260505225507 | 51 | 360 | 1.0 | 8.0 | 0.00 | 0.00 | 0.00 | 37 | 1010.1 |
| 20260505225005 | 51 | 223 | 1.0 | 8.0 | 0.00 | 0.00 | 0.00 | 38 | 1010.1 |
| 20260505224514 | 51 | 48 | 2.0 | 11.0 | 0.00 | 0.00 | 0.00 | 38 | 1010.1 |
| 20260505224008 | 51 | 14 | 2.0 | 11.0 | 0.00 | 0.00 | 0.00 | 37 | 1010.2 |
| 20260505223507 | 52 | 348 | 2.0 | 12.0 | 0.00 | 0.00 | 0.00 | 37 | 1010.2 |
| 20260505223014 | 52 | 344 | 2.0 | 12.0 | 0.00 | 0.00 | 0.00 | 37 | 1010.2 |
| 20260505222506 | 52 | 309 | 1.0 | 4.0 | 0.00 | 0.00 | 0.00 | 38 | 1010.0 |
| 20260505222010 | 52 | 346 | 1.0 | 5.0 | 0.00 | 0.00 | 0.00 | 38 | 1010.0 |
| 20260505221525 | 52 | 244 | 1.0 | 12.0 | 0.00 | 0.00 | 0.00 | 38 | 1010.0 |
| 20260505221006 | 52 | 161 | 3.0 | 12.0 | 0.00 | 0.00 | 0.00 | 36 | 1010.0 |
| 20260505220510 | 52 | 338 | 1.0 | 7.0 | 0.00 | 0.00 | 0.00 | 38 | 1010.0 |
| 20260505220030 | 52 | 304 | 1.0 | 7.0 | 0.00 | 0.00 | 0.00 | 38 | 1009.9 |
| 20260505215505 | 52 | 285 | 2.0 | 8.0 | 0.00 | 0.00 | 0.00 | 37 | 1010.0 |
| 20260505215005 | 53 | 263 | 3.0 | 8.0 | 0.00 | 0.00 | 0.00 | 37 | 1010.0 |
| 20260505214512 | 53 | 288 | 2.0 | 6.0 | 0.00 | 0.00 | 0.00 | 35 | 1010.1 |
| 20260505214006 | 54 | 17 | 1.0 | 6.0 | 0.00 | 0.00 | 0.00 | 35 | 1010.1 |
| 20260505213508 | 54 | 146 | 2.0 | 7.0 | 0.00 | 0.00 | 0.00 | 34 | 1010.0 |
| 20260505213017 | 54 | 217 | 1.0 | 7.0 | 0.00 | 0.00 | 0.00 | 35 | 1010.1 |
| 20260505212506 | 54 | 198 | 1.0 | 8.0 | 0.00 | 0.00 | 0.00 | 36 | 1010.1 |
| 20260505212007 | 54 | 31 | 1.0 | 10.0 | 0.00 | 0.00 | 0.00 | 37 | 1010.1 |
| 20260505211518 | 54 | 348 | 3.0 | 10.0 | 0.00 | 0.00 | 0.00 | 35 | 1010.0 |
| 20260505211007 | 54 | 181 | 2.0 | 10.0 | 0.00 | 0.00 | 0.00 | 35 | 1010.1 |
| 20260505210511 | 54 | 329 | 2.0 | 10.0 | 0.00 | 0.00 | 0.00 | 36 | 1010.0 |
| 20260505210024 | 54 | 215 | 2.0 | 10.0 | 0.00 | 0.00 | 0.00 | 37 | 1010.2 |
| 20260505205511 | 53 | 286 | 2.0 | 10.0 | 0.00 | 0.00 | 0.00 | 38 | 1010.2 |
| 20260505205011 | 53 | 181 | 2.0 | 10.0 | 0.00 | 0.00 | 0.00 | 36 | 1010.3 |
| 20260505204533 | 54 | 332 | 4.0 | 10.0 | 0.00 | 0.00 | 0.00 | 36 | 1010.2 |
| 20260505204008 | 53 | 277 | 2.0 | 4.0 | 0.00 | 0.00 | 0.00 | 38 | 1010.3 |
| 20260505203511 | 54 | 325 | 1.0 | 9.0 | 0.00 | 0.00 | 0.00 | 35 | 1010.3 |
| 20260505203030 | 53 | 278 | 2.0 | 15.0 | 0.00 | 0.00 | 0.00 | 36 | 1010.3 |
| 20260505202506 | 54 | 352 | 4.0 | 15.0 | 0.00 | 0.00 | 0.00 | 35 | 1010.4 |
| 20260505202011 | 54 | 304 | 2.0 | 8.0 | 0.00 | 0.00 | 0.00 | 37 | 1010.4 |
| 20260505201520 | 54 | 348 | 2.0 | 9.0 | 0.00 | 0.00 | 0.00 | 37 | 1010.5 |
| 20260505201006 | 53 | 317 | 2.0 | 9.0 | 0.00 | 0.00 | 0.00 | 37 | 1010.6 |
| 20260505200509 | 53 | 360 | 2.0 | 9.0 | 0.00 | 0.00 | 0.00 | 36 | 1010.7 |
| 20260505200035 | 53 | 320 | 3.0 | 9.0 | 0.00 | 0.00 | 0.00 | 37 | 1010.6 |
| 20260505195509 | 53 | 271 | 2.0 | 11.0 | 0.00 | 0.00 | 0.00 | 36 | 1010.6 |
| 20260505195007 | 53 | 234 | 1.0 | 11.0 | 0.00 | 0.00 | 0.00 | 35 | 1010.7 |
| 20260505194524 | 53 | 25 | 1.0 | 8.0 | 0.00 | 0.00 | 0.00 | 36 | 1010.6 |
| 20260505194006 | 53 | 257 | 2.0 | 7.0 | 0.00 | 0.00 | 0.00 | 36 | 1010.7 |
| 20260505193506 | 53 | 15 | 2.0 | 7.0 | 0.00 | 0.00 | 0.00 | 35 | 1010.6 |
| 20260505193010 | 54 | 242 | 2.0 | 7.0 | 0.00 | 0.00 | 0.00 | 33 | 1010.8 |
| 20260505192505 | 53 | 185 | 1.0 | 8.0 | 0.00 | 0.00 | 0.00 | 36 | 1010.7 |
| 20260505192005 | 52 | 37 | 1.0 | 8.0 | 0.00 | 0.00 | 0.00 | 37 | 1010.9 |
| 20260505191512 | 52 | 304 | 1.0 | 5.0 | 0.00 | 0.00 | 0.00 | 37 | 1010.8 |
| 20260505191012 | 52 | 249 | 1.0 | 9.0 | 0.00 | 0.00 | 0.00 | 39 | 1010.8 |
| 20260505190505 | 52 | 168 | 3.0 | 9.0 | 0.00 | 0.00 | 0.00 | 36 | 1010.8 |
| 20260505190011 | 52 | 221 | 2.0 | 11.0 | 0.00 | 0.00 | 0.00 | 36 | 1010.9 |
| 20260505185507 | 52 | 263 | 1.0 | 11.0 | 0.00 | 0.00 | 0.00 | 38 | 1010.9 |
| 20260505185005 | 51 | 176 | 1.0 | 7.0 | 0.00 | 0.00 | 0.00 | 37 | 1010.8 |
| 20260505184510 | 51 | 170 | 1.0 | 13.0 | 0.00 | 0.00 | 0.00 | 38 | 1010.9 |
| 20260505184007 | 51 | 156 | 1.0 | 13.0 | 0.00 | 0.00 | 0.00 | 39 | 1010.9 |
| 20260505183506 | 51 | 343 | 3.0 | 12.0 | 0.00 | 0.00 | 0.00 | 36 | 1010.9 |
| 20260505183012 | 51 | 248 | 2.0 | 8.0 | 0.00 | 0.00 | 0.00 | 38 | 1010.8 |
| 20260505182502 | 51 | 5 | 2.0 | 8.0 | 0.00 | 0.00 | 0.00 | 38 | 1010.8 |
| 20260505182006 | 51 | 270 | 3.0 | 11.0 | 0.00 | 0.00 | 0.00 | 36 | 1010.7 |
| 20260505181515 | 52 | 22 | 2.0 | 11.0 | 0.00 | 0.00 | 0.00 | 34 | 1010.7 |
| 20260505181007 | 52 | 261 | 3.0 | 9.0 | 0.00 | 0.00 | 0.00 | 36 | 1010.6 |
| 20260505180505 | 53 | 139 | 1.0 | 11.0 | 0.00 | 0.00 | 0.00 | 38 | 1010.6 |
| 20260505180016 | 53 | 44 | 2.0 | 11.0 | 0.00 | 0.00 | 0.00 | 33 | 1010.6 |
| 20260505175510 | 54 | 305 | 2.0 | 10.0 | 0.00 | 0.00 | 0.00 | 37 | 1010.5 |
| 20260505175004 | 52 | 42 | 2.0 | 13.0 | 0.00 | 0.00 | 0.00 | 38 | 1010.6 |
| 20260505174512 | 52 | 339 | 4.0 | 13.0 | 0.00 | 0.00 | 0.00 | 34 | 1010.6 |
| 20260505174008 | 52 | 90 | 3.0 | 9.0 | 0.00 | 0.00 | 0.00 | 37 | 1010.6 |
| 20260505173506 | 52 | 298 | 1.0 | 10.0 | 0.00 | 0.00 | 0.00 | 38 | 1010.5 |
| 20260505173014 | 52 | 259 | 3.0 | 10.0 | 0.00 | 0.00 | 0.00 | 35 | 1010.4 |
| 20260505172506 | 52 | 346 | 3.0 | 10.0 | 0.00 | 0.00 | 0.00 | 35 | 1010.5 |
| 20260505172009 | 52 | 137 | 1.0 | 12.0 | 0.00 | 0.00 | 0.00 | 35 | 1010.5 |
| 20260505171518 | 52 | 284 | 2.0 | 12.0 | 0.00 | 0.00 | 0.00 | 37 | 1010.6 |
| 20260505171007 | 53 | 341 | 5.0 | 12.0 | 0.00 | 0.00 | 0.00 | 33 | 1010.6 |
| 20260505170503 | 53 | 271 | 1.0 | 9.0 | 0.00 | 0.00 | 0.00 | 36 | 1010.7 |
| 20260505170018 | 52 | 293 | 3.0 | 10.0 | 0.00 | 0.00 | 0.00 | 37 | 1010.7 |
| 20260505165506 | 52 | 131 | 1.0 | 10.0 | 0.00 | 0.00 | 0.00 | 36 | 1010.7 |
| 20260505165009 | 51 | 352 | 2.0 | 10.0 | 0.00 | 0.00 | 0.00 | 38 | 1010.7 |
| 20260505164518 | 51 | 295 | 2.0 | 8.0 | 0.00 | 0.00 | 0.00 | 38 | 1010.7 |
| 20260505164006 | 51 | 181 | 1.0 | 11.0 | 0.00 | 0.00 | 0.00 | 36 | 1010.8 |
| 20260505163507 | 51 | 296 | 2.0 | 11.0 | 0.00 | 0.00 | 0.00 | 37 | 1010.7 |
| 20260505163018 | 51 | 66 | 1.0 | 14.0 | 0.00 | 0.00 | 0.00 | 38 | 1010.7 |
| 20260505162506 | 51 | 252 | 5.0 | 14.0 | 0.00 | 0.00 | 0.00 | 36 | 1010.9 |
| 20260505162006 | 52 | 295 | 1.0 | 10.0 | 0.00 | 0.00 | 0.00 | 40 | 1010.9 |
| 20260505161519 | 51 | 46 | 2.0 | 9.0 | 0.00 | 0.00 | 0.00 | 39 | 1011.0 |
| 20260505161007 | 51 | 348 | 1.0 | 12.0 | 0.00 | 0.00 | 0.00 | 39 | 1010.9 |
| 20260505160507 | 50 | 344 | 3.0 | 12.0 | 0.00 | 0.00 | 0.00 | 38 | 1010.9 |
| 20260505153021 | 50 | 300 | 2.0 | 7.0 | 0.00 | 0.00 | 0.00 | 39 | 1010.8 |
| 20260505152508 | 50 | 301 | 1.0 | 11.0 | 0.00 | 0.00 | 0.00 | 41 | 1010.6 |
| 20260505152013 | 50 | 324 | 1.0 | 11.0 | 0.00 | 0.00 | 0.00 | 41 | 1010.5 |
| 20260505151521 | 49 | 293 | 3.0 | 10.0 | 0.00 | 0.00 | 0.00 | 43 | 1010.5 |
| 20260505151009 | 49 | 332 | 3.0 | 11.0 | 0.00 | 0.00 | 0.00 | 41 | 1010.5 |
| 20260505150507 | 48 | 338 | 2.0 | 11.0 | 0.00 | 0.00 | 0.00 | 42 | 1010.4 |
| 20260505140510 | 43 | 256 | 2.0 | 5.0 | 0.00 | 0.00 | 0.00 | 53 | 1010.5 |
| 20260505125004 | 37 | 332 | 1.0 | 4.0 | 0.00 | 0.00 | 0.00 | 68 | 1009.9 |
| 20260505124505 | 37 | 12 | 0.0 | 3.0 | 0.00 | 0.00 | 0.00 | 68 | 1009.8 |
| 20260505124005 | 37 | 342 | 0.0 | 4.0 | 0.00 | 0.00 | 0.00 | 68 | 1009.8 |
| 20260505123506 | 37 | 267 | 0.0 | 6.0 | 0.00 | 0.00 | 0.00 | 68 | 1009.8 |
| 20260505123013 | 36 | 346 | 2.0 | 6.0 | 0.00 | 0.00 | 0.00 | 69 | 1009.8 |
| 20260505122503 | 36 | 325 | 1.0 | 6.0 | 0.00 | 0.00 | 0.00 | 69 | 1009.7 |
| 20260505122011 | 36 | 325 | 2.0 | 6.0 | 0.00 | 0.00 | 0.00 | 69 | 1009.6 |
| 20260505121518 | 35 | 315 | 1.0 | 3.0 | 0.00 | 0.00 | 0.00 | 69 | 1009.6 |
| 20260505121005 | 35 | 348 | 0.0 | 5.0 | 0.00 | 0.00 | 0.00 | 69 | 1009.6 |
| 20260505120503 | 35 | 327 | 1.0 | 5.0 | 0.00 | 0.00 | 0.00 | 69 | 1009.4 |
| 20260505120004 | 35 | 346 | 1.0 | 4.0 | 0.00 | 0.00 | 0.00 | 69 | 1009.4 |
| 20260505115504 | 35 | 301 | 0.0 | 3.0 | 0.00 | 0.00 | 0.00 | 68 | 1009.3 |
| 20260505115003 | 35 | 326 | 0.0 | 4.0 | 0.00 | 0.00 | 0.00 | 68 | 1009.2 |
| 20260505114506 | 35 | 360 | 0.0 | 4.0 | 0.00 | 0.00 | 0.00 | 68 | 1009.0 |
| 20260505114004 | 35 | 338 | 0.0 | 3.0 | 0.00 | 0.00 | 0.00 | 67 | 1008.9 |
| 20260505113504 | 35 | 304 | 0.0 | 0.0 | 0.00 | 0.00 | 0.00 | 67 | 1008.8 |
| 20260505113008 | 35 | 267 | 0.0 | 0.0 | 0.00 | 0.00 | 0.00 | 66 | 1008.6 |
| 20260505112509 | 35 | 267 | 0.0 | 1.0 | 0.00 | 0.00 | 0.00 | 66 | 1008.6 |
| 20260505112006 | 35 | 218 | 0.0 | 1.0 | 0.00 | 0.00 | 0.00 | 65 | 1008.5 |
| 20260505111511 | 35 | 218 | 0.0 | 1.0 | 0.00 | 0.00 | 0.00 | 65 | 1008.2 |
| 20260505111003 | 35 | 218 | 0.0 | 1.0 | 0.00 | 0.00 | 0.00 | 64 | 1008.1 |
| 20260505110507 | 35 | 218 | 0.0 | 1.0 | 0.00 | 0.00 | 0.00 | 64 | 1008.0 |
| 20260505102004 | 36 | 208 | 0.0 | 2.0 | 0.00 | 0.00 | 0.00 | 63 | 1007.6 |
| 20260505101512 | 36 | 242 | 0.0 | 2.0 | 0.00 | 0.00 | 0.00 | 63 | 1007.6 |
| 20260505101003 | 36 | 279 | 0.0 | 2.0 | 0.00 | 0.00 | 0.00 | 63 | 1007.6 |
| 20260505100507 | 36 | 200 | 0.0 | 2.0 | 0.00 | 0.00 | 0.00 | 63 | 1007.5 |
| 20260505100016 | 36 | 200 | 0.0 | 2.0 | 0.00 | 0.00 | 0.00 | 63 | 1007.6 |
| 20260505095507 | 36 | 219 | 0.0 | 2.0 | 0.00 | 0.00 | 0.00 | 63 | 1007.6 |
| 20260505095006 | 36 | 219 | 0.0 | 2.0 | 0.00 | 0.00 | 0.00 | 63 | 1007.6 |
| 20260505094507 | 37 | 210 | 0.0 | 2.0 | 0.00 | 0.00 | 0.00 | 62 | 1007.6 |
| 20260505094006 | 37 | 102 | 0.0 | 2.0 | 0.00 | 0.00 | 0.00 | 62 | 1007.6 |
| 20260505093506 | 37 | 144 | 0.0 | 1.0 | 0.00 | 0.00 | 0.00 | 62 | 1007.5 |
| 20260505093026 | 37 | 161 | 0.0 | 2.0 | 0.00 | 0.00 | 0.00 | 61 | 1007.5 |
| 20260505092507 | 37 | 163 | 0.0 | 2.0 | 0.00 | 0.00 | 0.00 | 61 | 1007.5 |
| 20260505092004 | 37 | 193 | 0.0 | 1.0 | 0.00 | 0.00 | 0.00 | 60 | 1007.5 |
| 20260505091508 | 38 | 193 | 0.0 | 1.0 | 0.00 | 0.00 | 0.00 | 60 | 1007.5 |
| 20260505091003 | 38 | 193 | 0.0 | 1.0 | 0.00 | 0.00 | 0.00 | 59 | 1007.4 |
| 20260505090503 | 38 | 193 | 0.0 | 1.0 | 0.00 | 0.00 | 0.00 | 58 | 1007.4 |
| 20260505090011 | 38 | 193 | 0.0 | 1.0 | 0.00 | 0.00 | 0.00 | 58 | 1007.3 |
| 20260505085504 | 38 | 193 | 0.0 | 1.0 | 0.00 | 0.00 | 0.00 | 58 | 1007.1 |
| 20260505085004 | 39 | 193 | 0.0 | 1.0 | 0.00 | 0.00 | 0.00 | 58 | 1007.1 |
| 20260505084519 | 39 | 193 | 0.0 | 1.0 | 0.00 | 0.00 | 0.00 | 58 | 1007.0 |
| 20260505084006 | 39 | 193 | 0.0 | 1.0 | 0.00 | 0.00 | 0.00 | 57 | 1007.0 |
| 20260505083507 | 39 | 193 | 0.0 | 1.0 | 0.00 | 0.00 | 0.00 | 57 | 1006.9 |
| 20260505083014 | 39 | 193 | 0.0 | 2.0 | 0.00 | 0.00 | 0.00 | 57 | 1006.8 |
| 20260505082508 | 39 | 193 | 0.0 | 2.0 | 0.00 | 0.00 | 0.00 | 57 | 1006.8 |
| 20260505082013 | 40 | 131 | 0.0 | 2.0 | 0.00 | 0.00 | 0.00 | 57 | 1006.7 |
| 20260505081509 | 40 | 141 | 0.0 | 1.0 | 0.00 | 0.00 | 0.00 | 57 | 1006.6 |
| 20260505081008 | 40 | 142 | 0.0 | 1.0 | 0.00 | 0.00 | 0.00 | 57 | 1006.6 |
| 20260505080504 | 40 | 131 | 0.0 | 2.0 | 0.00 | 0.00 | 0.00 | 56 | 1006.5 |
| 20260505080012 | 40 | 127 | 0.0 | 2.0 | 0.00 | 0.00 | 0.00 | 56 | 1006.6 |
| 20260505075504 | 40 | 136 | 0.0 | 1.0 | 0.00 | 0.00 | 0.00 | 56 | 1006.6 |
| 20260505075007 | 40 | 136 | 0.0 | 1.0 | 0.00 | 0.00 | 0.00 | 56 | 1006.6 |
| 20260505074514 | 41 | 39 | 0.0 | 2.0 | 0.00 | 0.00 | 0.00 | 56 | 1006.6 |
| 20260505074007 | 41 | 232 | 0.0 | 3.0 | 0.00 | 0.00 | 0.00 | 56 | 1006.5 |
| 20260505073504 | 41 | 22 | 0.0 | 3.0 | 0.00 | 0.00 | 0.00 | 56 | 1006.5 |
| 20260505073024 | 41 | 217 | 0.0 | 3.0 | 0.00 | 0.00 | 0.00 | 55 | 1006.5 |
| 20260505072509 | 41 | 162 | 0.0 | 2.0 | 0.00 | 0.00 | 0.00 | 55 | 1006.5 |
| 20260505072004 | 41 | 162 | 0.0 | 4.0 | 0.00 | 0.00 | 0.00 | 55 | 1006.5 |
| 20260505071539 | 41 | 244 | 0.0 | 4.0 | 0.00 | 0.00 | 0.00 | 55 | 1006.6 |
| 20260505071008 | 41 | 328 | 0.0 | 4.0 | 0.00 | 0.00 | 0.00 | 55 | 1006.6 |
| 20260505070511 | 41 | 266 | 0.0 | 3.0 | 0.00 | 0.00 | 0.00 | 55 | 1006.6 |
| 20260505070016 | 41 | 282 | 0.0 | 3.0 | 0.00 | 0.00 | 0.00 | 55 | 1006.6 |
| 20260505065509 | 41 | 150 | 0.0 | 2.0 | 0.00 | 0.00 | 0.00 | 54 | 1006.5 |
| 20260505065008 | 41 | 80 | 0.0 | 3.0 | 0.00 | 0.00 | 0.00 | 54 | 1006.5 |
| 20260505064520 | 42 | 196 | 0.0 | 3.0 | 0.00 | 0.00 | 0.00 | 54 | 1006.5 |
| 20260505064005 | 42 | 112 | 0.0 | 6.0 | 0.00 | 0.00 | 0.00 | 54 | 1006.5 |
| 20260505063503 | 42 | 49 | 1.0 | 6.0 | 0.00 | 0.00 | 0.00 | 54 | 1006.5 |
| 20260505063016 | 42 | 321 | 0.0 | 3.0 | 0.00 | 0.00 | 0.00 | 53 | 1006.5 |
| 20260505062504 | 42 | 31 | 0.0 | 3.0 | 0.00 | 0.00 | 0.00 | 53 | 1006.5 |
| 20260505062010 | 42 | 148 | 0.0 | 3.0 | 0.00 | 0.00 | 0.00 | 53 | 1006.5 |
| 20260505061519 | 42 | 138 | 0.0 | 3.0 | 0.00 | 0.00 | 0.00 | 53 | 1006.5 |
| 20260505061012 | 42 | 301 | 0.0 | 3.0 | 0.00 | 0.00 | 0.00 | 52 | 1006.5 |
| 20260505060510 | 42 | 322 | 0.0 | 2.0 | 0.00 | 0.00 | 0.00 | 52 | 1006.4 |
| 20260505060021 | 42 | 305 | 0.0 | 2.0 | 0.00 | 0.00 | 0.00 | 52 | 1006.5 |
| 20260505055510 | 42 | 313 | 0.0 | 2.0 | 0.00 | 0.00 | 0.00 | 52 | 1006.6 |
| 20260505055008 | 42 | 121 | 0.0 | 2.0 | 0.00 | 0.00 | 0.00 | 51 | 1006.5 |
| 20260505054532 | 43 | 121 | 0.0 | 3.0 | 0.00 | 0.00 | 0.00 | 51 | 1006.6 |
| 20260505054013 | 43 | 121 | 0.0 | 3.0 | 0.00 | 0.00 | 0.00 | 51 | 1006.5 |
| 20260505053515 | 43 | 84 | 0.0 | 2.0 | 0.00 | 0.00 | 0.00 | 51 | 1006.5 |
| 20260505053024 | 43 | 52 | 0.0 | 2.0 | 0.00 | 0.00 | 0.00 | 51 | 1006.5 |
| 20260505052505 | 43 | 119 | 0.0 | 2.0 | 0.00 | 0.00 | 0.00 | 50 | 1006.5 |
| 20260505052007 | 43 | 75 | 0.0 | 2.0 | 0.00 | 0.00 | 0.00 | 50 | 1006.5 |
| 20260505051520 | 43 | 38 | 0.0 | 2.0 | 0.00 | 0.00 | 0.00 | 50 | 1006.5 |
| 20260505051008 | 43 | 246 | 0.0 | 2.0 | 0.00 | 0.00 | 0.00 | 49 | 1006.4 |
| 20260505050509 | 43 | 196 | 0.0 | 2.0 | 0.00 | 0.00 | 0.00 | 49 | 1006.4 |